Flag for U.S.A. Weather past 2 weeks in Spartanburg, South Carolina, U.S.A.

Now
55 °F

Passing clouds.


Feels Like: 54 °F
Forecast: 42 / 50 °F
Wind: 7 mph from East

Location: Spartanburg Memorial

Current Time: Mar 3, 2015 at 12:39:42 AM

Latest Report: Mar 3, 2015 at 12:15 AM


Visibility: 10 mi

Pressure: 30.27 "Hg

Humidity: 44%

Dew point: 34 °F

Location of SpartanburgLocation

Historic Weather in Spartanburg — Graph

°F

Spartanburg temperature yesterday

Maximum temperature yesterday: 70 °F (at 3:15 PM)
Minimum temperature yesterday: 43 °F (at 12:15 AM)
Average temperature yesterday: 55 °F

Past Weeks' High & Low Weather Summary

 TemperatureHumidityPressure
High70 °F (Mar 2, 3:15 PM)100% (Feb 16, 7:35 PM)30.70 "Hg (Feb 16, 7:35 PM)
Low12 °F (Feb 20, 7:35 AM)23% (Feb 15, 11:35 PM)29.68 "Hg (Feb 26, 3:35 AM)
Average37 °F65%30.17 "Hg
* Reported Feb 15 11:15 PM — Mar 2 11:35 PM, Spartanburg, Weather by CustomWeather, © 2015

Note: Actual official high and low records may vary slightly from our data, if they occured in-between our weather recording intervals... More about our weather records

Advertising

Spartanburg weather history for previous 24 hours

 ConditionsComfort  
Time TempWeatherWind HumidityBarometerVisibility
11:35 PM
Mon, Mar 2
55 °FPassing clouds.5 mph47%30.28 "Hg10 mi
11:15 PM57 °FPassing clouds.6 mph44%30.27 "Hg10 mi
10:55 PM57 °FPassing clouds.6 mph44%30.27 "Hg10 mi
10:35 PM57 °FPassing clouds.5 mph44%30.27 "Hg10 mi
10:15 PM57 °FPassing clouds.6 mph48%30.27 "Hg10 mi
9:35 PM59 °FClear.7 mph51%30.25 "Hg10 mi
9:15 PM59 °FPassing clouds.9 mph59%30.25 "Hg10 mi
8:35 PM63 °FPassing clouds.3 mph64%30.25 "Hg10 mi
8:15 PM61 °FPassing clouds.5 mph63%30.25 "Hg10 mi
7:55 PM61 °FPassing clouds.3 mph59%30.23 "Hg10 mi
7:35 PM63 °FPassing clouds.3 mph52%30.23 "Hg10 mi
7:15 PM61 °FPassing clouds.3 mph55%30.22 "Hg10 mi
6:35 PM66 °FPassing clouds.No wind46%30.21 "Hg10 mi
6:15 PM68 °FPartly sunny.No wind43%30.20 "Hg10 mi
5:55 PM68 °FScattered clouds.No wind43%30.20 "Hg10 mi
5:35 PM68 °FScattered clouds.3 mph43%30.19 "Hg10 mi
5:15 PM68 °FScattered clouds.5 mph43%30.19 "Hg10 mi
4:15 PM70 °FSunny.No wind40%30.20 "Hg10 mi
3:55 PM70 °FSunny.5 mph40%30.19 "Hg10 mi
3:35 PM70 °FSunny.No wind40%30.19 "Hg10 mi
3:15 PM70 °FSunny.3 mph40%30.19 "Hg10 mi
2:35 PM68 °FSunny.6 mph43%30.19 "Hg10 mi
1:55 PM68 °FSunny.8 mph43%30.20 "Hg10 mi
1:15 PM68 °FSunny.8 mph46%30.22 "Hg10 mi
12:35 PM64 °FSunny.No wind56%30.23 "Hg10 mi
12:15 PM64 °FSunny.No wind60%30.24 "Hg10 mi
11:55 AM61 °FSunny.No wind68%30.25 "Hg10 mi
11:35 AM59 °FSunny.6 mph77%30.25 "Hg10 mi
11:15 AM57 °FSunny.5 mph82%30.25 "Hg10 mi
10:35 AM54 °FSunny.6 mphN/A30.26 "Hg7 mi
10:15 AM50 °FSunny.5 mphN/A30.25 "Hg5 mi
9:55 AM50 °FFog.5 mphN/A30.24 "Hg3 mi
9:35 AM50 °FFog.7 mph100%30.25 "Hg3 mi
9:15 AM48 °FFog.6 mph100%30.24 "Hg2 mi
8:35 AM46 °FFog.7 mph100%30.24 "Hg1 mi
8:15 AM46 °FFog.7 mph100%30.23 "Hg1 mi
7:55 AM46 °FFog.9 mph100%30.23 "Hg1 mi
7:35 AM46 °FFog.6 mph100%30.22 "Hg0 mi
7:15 AM46 °FFog.10 mph100%30.20 "Hg1 mi
6:55 AM46 °FFog.7 mph100%30.20 "Hg1 mi
6:35 AM46 °FFog.8 mph100%30.19 "Hg1 mi
6:15 AM46 °FFog.7 mph100%30.20 "Hg1 mi
5:35 AM46 °FFog.6 mph100%30.21 "Hg1 mi
5:15 AM46 °FFog.7 mph100%30.20 "Hg1 mi
4:35 AM45 °FFog.7 mph100%30.20 "Hg1 mi
4:15 AM45 °FFog.7 mph100%30.21 "Hg1 mi
3:35 AM45 °FFog.5 mph100%30.22 "Hg1 mi
3:15 AM45 °FFog.8 mph100%30.23 "Hg1 mi
2:35 AM45 °FFog.6 mph100%30.25 "Hg1 mi
2:15 AM45 °FFog.8 mph100%30.26 "Hg1 mi
1:55 AM45 °FFog.8 mph100%30.26 "Hg2 mi
1:35 AM45 °FFog.7 mph100%30.27 "Hg2 mi
1:15 AM45 °FFog.6 mph100%30.28 "Hg1 mi
12:55 AM45 °FFog.7 mph100%30.29 "Hg1 mi
12:35 AM45 °FFog.7 mph100%30.30 "Hg1 mi
12:15 AM43 °FFog.7 mphN/A30.32 "Hg1 mi
Weather by CustomWeather, © 2015

See weather overviewHow to use our weather pages